Location: Wildlife_Club
(35.6000°N, 81.4330°W)
Time: 20:50:59
(UTC-04:00)

A-11 Canister half - Pass Details

Date: 27 June 2019
Orbit: 1514 x 1685 km, 47.2° (Epoch: 19 July)

Event Time Altitude Azimuth Distance (km) Brightness Sun altitude
Rises 07:20:17 0° 175° (S) 4,923 11.5 11.7°
Reaches altitude 10° 07:25:17 10° 155° (SSE) 3,938 11.3 12.7°
Maximum altitude 07:30:35 16° 123° (ESE) 3,493 11.6 13.7°
Drops below altitude 10° 07:35:50 10° 90° (E) 3,915 12.9 14.7°
Sets 07:40:42 0° 71° (ENE) 4,881 13.5 15.6°
